Lid_Strength_Index
0 1 1 1 1 1 1 1 2 3 3 3 3 3 3 3 3 3 2 1 0 1
1 1 1 0 0 0 0 1 2 2 3 3 3 4 4 4 3 3 3 1 0 1
1 1 1 0 1 1 0 0 1 2 3 3 4 4 3 4 4 3 2 2 1 1
1 1 1 1 1 0 0 0 1 1 2 3 4 4 4 4 4 3 2 1 2 2
1 1 1 1 1 0 1 1 0 0 1 2 3 3 4 3 3 3 2 1 2 2
2 1 1 1 0 0 0 0 0 0 1 1 1 2 2 1 1 1 1 1 3 2
2 2 1 1 1 1 1 1 1 1 0 1 1 1 1 1 1 1 1 1 1 1
2 1 1 1 1 1 1 1 1 1 1 1 1 1 1 1 1 1 1 1 1 0
9 8 7 6 6 4 3 2 1 1 1 1 8 14 12 7 1 1 1 1 1 0
12 11 10 9 9 9 7 7 8 9 10 12 13 14 13 14 6 2 1 1 1 1
13 13 12 12 11 10 10 11 12 13 12 14 15 15 15 15 9 7 5 6 10 9
14 14 13 13 12 11 12 13 14 14 14 14 15 15 15 12 8 10 13 14 15 14
14 14 14 13 12 12 13 14 14 15 15 15 15 15 15 11 10 13 14 16 16 16
15 15 15 14 13 13 13 13 14 14 15 15 15 15 15 14 12 13 15 16 16 16